map of SHJ home
Great Circle Mapper logo
SHJ - Airport
Location
City:  Sharjah, United Arab Emirates
Name:Sharjah International Airport
ICAO / IATA:OMSJ / SHJ

Details
Type:Airport (Aerodrome, Airfield)
Use:Public/Civil, Military, International (customs port of entry)
Latitude:2519'43"N (25.328575)
Longitude:5531'02"E (55.517150)
Datum:WGS 1984
Elevation:111 ft (34 m)
Runways:1
Longest:13320 × 148 ft (4060 × 45 m), paved

Time
Time Zone:UTC+4
Local Time:

Weather
METAR:OMSJ 250600Z 18009KT 150V230 CAVOK 40/17 Q0998
TAF:OMSJ 250453Z 2506/2612 18008KT CAVOK
BECMG 2508/2510 32012KT
BECMG 2516/2518 09007KT
BECMG 2609/2611 35014KT

Related Locations
Nearby:
Farthest:GMR: 11772 mi / 18945 km
Mangareva [Totegegie], Gambier Islands, PF

Find:

   beyond  
but within

Other Information
Maps:
NOTAMs:
Links:
Sources:

  
flag of United Arab Emirates   

Sectional Chart

Flight Planning
at skyvector.com

Satellite Image

Google Maps Satellite View

 

Copyright © 2004-2014 Karl L. Swartz. All rights reserved.
The Great Circle Mapper name and logo are trademarks of the Great Circle Mapper.
All other trademarks mentioned herein belong to their respective owners.
Please see credits for attibutions and further copyright information.

  Follow gcmap on Facebook Follow gcmap on Twitter

hCard Microformat

Geo Microformat